Regional Weather Roundup
Issued by NWS

Home | Current Version | Previous Version | Text Only | Print | Product List | Glossary On
Versions: 1 2 3 4 5 6 7 8 9 10 11 12 13 14 15 16 17 18 19 20 21 22 23 24 25 26 27 28 29 30 31 32 33 34 35 36 37 38 39 40 41 42 43 44 45 46 47 48 49 50
000
ASUS43 KBIS 141520
RWRND

NORTH DAKOTA REGIONAL WEATHER ROUNDUP
NATIONAL WEATHER SERVICE BISMARCK ND
1000 AM CDT MON JUL 14 2014

NOTE: "FAIR" INDICATES FEW OR NO CLOUDS BELOW 12,000 FEET WITH NO
SIGNIFICANT WEATHER AND/OR OBSTRUCTIONS TO VISIBILITY.


NDZ001>003-009>011-017-141600-
NORTHWEST NORTH DAKOTA

CITY           SKY/WX    TMP DP  RH WIND       PRES   REMARKS
WILLISTON      SUNNY     60  48  64 N8        30.35R
MINOT          MOSUNNY   60  47  61 N14G22    30.28R
MINOT AFB      MOSUNNY   57  46  67 N15       30.29R
$$

NDZ018>021-031>035-040>046-141600-
SOUTHWEST NORTH DAKOTA

CITY           SKY/WX    TMP DP  RH WIND       PRES   REMARKS
BISMARCK       PTSUNNY   60  46  59 N17G29    30.26R
DICKINSON      MOSUNNY   57  47  69 N12       30.32R
GARRISON         N/A     58  47  66 N18G28    30.28R
HETTINGER ARPT PTSUNNY   58  46  64 N10       30.33R
$$

NDZ004>008-012>016-024-026-027-054-141600-
NORTHEAST NORTH DAKOTA

CITY           SKY/WX    TMP DP  RH WIND       PRES   REMARKS
GRAND FORKS    PTSUNNY   55  47  74 N17G25    30.11R
GRND FRKS AFB  MOSUNNY   57  49  74 N20G29    30.13R
DEVILS LAKE    CLOUDY    55  43  62 N20       30.20R
$$

NDZ022-023-025-028>030-036>039-047>053-141600-
SOUTHEAST NORTH DAKOTA

CITY           SKY/WX    TMP DP  RH WIND       PRES   REMARKS
FARGO          CLOUDY    57  46  66 N20       30.09R
JAMESTOWN      PTSUNNY   57  45  64 NW21      30.17R
$$



USA.gov is the U.S. government's official web portal to all federal, state and local government web resources and services.